Regional Weather Roundup
Issued by NWS

Home | Current Version | Previous Version | Graphics & Text | Print | Product List | Glossary On
Versions: 1 2 3 4 5 6 7 8 9 10 11 12 13 14 15 16 17 18 19 20 21 22 23 24 25 26 27
000
ASUS45 KBOU 191710
RWRCO

WEATHER ROUNDUP FOR COLORADO
NATIONAL WEATHER SERVICE DENVER/BOULDER CO
1000 AM MST FRI JAN 19 2018

NOTE: "FAIR" INDICATES FEW OR NO CLOUDS BELOW 12000 FEET WITH NO
SIGNIFICANT WEATHER AND/OR OBSTRUCTIONS TO VISIBILITY.

COZ001>005-013-030-031-191800-
...NORTHWEST COLORADO...

CITY           SKY/WX    TMP DP  RH WIND       PRES   REMARKS
CRAIG          FAIR      26  16  65 CALM      29.95S
HAYDEN         FAIR     N/A N/A N/A SE8       29.97S
MEEKER         FAIR      44  20  38 S3        29.97S
RABBIT EARS PA FAIR      32  21  64 SW7G16    30.03S WCI  26
STEAMBOAT SPGS FAIR      18  13  79 CALM      29.96F
WALDEN         FAIR      43  12  28 S17G23    29.94F
$$

COZ006>008-011-191800-
...WEST CENTRAL VALLEYS...

CITY           SKY/WX    TMP DP  RH WIND       PRES   REMARKS
GRAND JUNCTION FAIR      34  20  56 CALM      30.04S
MONTROSE       FAIR      38  17  42 SE5       30.08R
EAGLE          FAIR      24  14  65 CALM      30.07F
RIFLE          FAIR      28  20  71 W5        30.05F WCI  23
DELTA          FAIR      35  20  53 E6        30.07S WCI  30
NUCLA          FAIR      37  14  38 SE3       30.12S
$$

COZ017>023-064>068-191800-
...SOUTHWEST COLORADO...

CITY           SKY/WX    TMP DP  RH WIND       PRES   REMARKS
DURANGO        FAIR      33  20  58 E5        30.15R WCI  29
CORTEZ         FAIR      41  24  51 E5        30.12S
PAGOSA SPRINGS FAIR      36  16  44 E3        30.17R
TELLURIDE      FAIR      40  13  33 CALM      30.16R
WOLF CREEK PAS FAIR      27   9  46 SW16G22   30.27R WCI  14
$$

COZ009-010-012-014-032>034-037-058>063-191800-
...CENTRAL COLORADO...

CITY           SKY/WX    TMP DP  RH WIND       PRES   REMARKS
ASPEN          FAIR      34  18  52 NW6       30.01S WCI  29
BUENA VISTA    FAIR      40  11  30 E5        30.02F
COPPER MTN     NOT AVBL
BERTHOUD PASS  FAIR      30  18  59 W46G61    30.05R WCI  12
COTTONWOOD PAS   N/A     46  10  23 W16G23    30.07R
GUNNISON       FAIR      16   8  71 CALM      30.18S
KREMMLING      FAIR      27  16  63 CALM      30.02S
LEADVILLE      FAIR      41  11  29 NE8       30.04S
MONARCH PASS   FAIR      27   5  39 W38       30.24S WCI   9
SALIDA         FAIR      51   4  14 SW16G25   30.09R
SUNLIGHT       FAIR      32  12  43 SW22G30   30.11F WCI  19
WILKERSON PASS FAIR      32   5  32 SW14G25   30.10R WCI  22
$$

COZ069>075-191800-
...SAN LUIS VALLEY/SANGRE DE CRISTO MOUNTAINS...

CITY           SKY/WX    TMP DP  RH WIND       PRES   REMARKS
ALAMOSA        FAIR      29   4  34 NW3       30.13R
DEL NORTE      FAIR      33   9  36 CALM      30.14R
LA VETA PASS   FAIR      30   7  37 SW24G30     N/A  WCI  16
SAGUACHE       FAIR      32   9  37 SE3       30.14R
$$

COZ035-036-038>040-191800-
...NORTHERN COLORADO FRONT RANGE...

CITY           SKY/WX    TMP DP  RH WIND       PRES   REMARKS
DENVER INTL AP PTSUNNY   53  15  22 SW13      29.80S
DMNS CITY PARK NOT AVBL
AURORA         PTSUNNY   54  17  23 SW10      29.82R
FRONT RANGE AP PTSUNNY   54  19  26 SW6       29.81F
ERIE MUNI ARPT FAIR      50  20  30 S5        29.84S
BOULDER MUN AP FAIR      63  18  17 SW18G28   29.79S
CENTENNIAL     PTSUNNY   57  14  18 S16       29.82R
BROOMFIELD     PTSUNNY   54  19  26 SW3       29.82R
FORT COLLINS   FAIR      51  20  29 NW6       29.79R
LONGMONT       FAIR      62  17  17 CALM      29.81R
$$

COZ041-046-047-076>085-087-088-191800-
...PIKES PEAK/PALMER DIVIDE AND SOUTHERN FOOTHILLS...

CITY           SKY/WX    TMP DP  RH WIND       PRES   REMARKS
COLO. SPRINGS  PTSUNNY   52  13  21 NE8       29.88R
A. F. ACADEMY  FAIR      57   9  14 W17G32    29.87R
SCHRIEVER AFB  FAIR      52  11  20 CALM      29.88
CHEYENNE MTN   PTSUNNY   58   7  13 NW10G22   29.85
ELLICOTT         N/A    N/A N/A N/A W12       29.86R
FALCON         FAIR      56   8  14 W10G20    29.91S
FORT CARSON    SUNNY     50  15  24 N6        29.85S
LIMON          FAIR      58  20  22 NW3       29.83R
MONUMENT HILL  FAIR      52  12  20 SW7G16    29.91S
CANON CITY     FAIR      59  19  21 W16G26    29.87S
WALSENBURG     FAIR      59  10  14 NW10G21   29.94S
TRINIDAD       FAIR      56  16  20 NW9       29.91S
$$

COZ042>045-048>051-090-091-191800-
...NORTHEAST COLORADO...

CITY           SKY/WX    TMP DP  RH WIND       PRES   REMARKS
GREELEY ARPT   FAIR      32  22  66 CALM      29.80R
AKRON          FAIR      48  18  30 W14       29.77R
BURLINGTON     FAIR      59  16  18 SW18G26   29.78R
WRAY           FAIR      48  16  27 SW7       29.73F
YUMA           FAIR      46  19  34 W12       29.75R
STERLING       FAIR      34  23  64 S7        29.76S WCI  28
HOLYOKE        FAIR      46  21  36 NW6       29.73F
FORT MORGAN    FAIR      37  19  48 W6        29.79R
$$

COZ086-089-092>099-191800-
...SOUTHEAST COLORADO...

CITY           SKY/WX    TMP DP  RH WIND       PRES   REMARKS
PUEBLO         FAIR      59  16  18 W16       29.84S
LA JUNTA       FAIR      50  18  28 MISG      29.84F
LAMAR          FAIR      42  17  36 W9        29.82S
SPRINGFIELD      N/A     65   7  10 S10       29.83S
$$




USA.gov is the U.S. government's official web portal to all federal, state and local government web resources and services.